Location: *
(46.3500°N, 10.9000°E)
Time: 10:26:38
(UTC+00:00)

ATLAS 5 CENTAUR R/B - Pass Details

Date: 09 April 2020
Orbit: 543 x 1116 km, 63.4° (Epoch: 01 May)

Event Time Altitude Azimuth Distance (km) Brightness Sun altitude
Rises 19:59:18 0° 244° (WSW) 2,751 5.3 -20.0°
Reaches altitude 10° 20:01:34 10° 254° (WSW) 1,901 4.5 -20.3°
Maximum altitude 20:05:29 35° 321° (NW) 1,021 3.2 -20.9°
Drops below altitude 10° 20:09:54 10° 28° (NNE) 2,152 4.4 -21.5°
Sets 20:12:37 0° 37° (NE) 3,173 5.2 -21.8°
